Chippewa, MI

3:37 AM EDT on October 15, 2019 (GMT -0400)
Chippewa County International

Weather History for KCIU - August, 2019

Change the Weather History Date:

Thursday, August 8, 2019

  Actual Average Record
Temperature  
Mean Temperature 66 °F -  
Max Temperature 73 °F 76 °F 84 °F (2001)
Min Temperature 57 °F 53 °F 38 °F (1989)
Growing Degree Days 16 (Base 50)    
Moisture  
Dew Point 59 °F    
Average Humidity 82    
Maximum Humidity 100    
Minimum Humidity 46    
Precipitation  
Precipitation 0.27 in - - ()
Sea Level Pressure  
Sea Level Pressure 29.69 in    
Wind  
Wind Speed 8 mph (WNW)    
Max Wind Speed 23 mph    
Max Gust Speed 29 mph    
Visibility 9 miles    
Events Fog , Rain    
Averages and records for this station are not official NWS values.
T = Trace of Precipitation, MM = Missing Value Source: NWS Daily Summary

Daily Weather History Graph

Daily Weather History Graph

Search for Another Location

Airport or City:

Astronomy

Aug. 08, 2019 Rise Set
Actual Time 6:27 AM EDT 8:58 PM EDT
Civil Twilight 5:54 AM EDT 9:32 PM EDT
Nautical Twilight 5:11 AM EDT 10:14 PM EDT
Astronomical Twilight 4:22 AM EDT 11:02 PM EDT
Moon 3:34 PM EDT (8/8) 12:51 AM EDT (8/8)
Length of Visible Light 15h 38m
Length of Day
14h 30m
First Quarter, 60% of the Moon is Illuminated
Aug 8
First Quarter
Aug 15
Full
Aug 23
Last Quarter
Aug 30
New
Sep 5
First Quarter

Hourly Weather History & Observations

Time (EDT) Temp. Dew Point Humidity Pressure Visibility Wind Dir Wind Speed Gust Speed Precip Events Conditions
12:56 AM 66.0 °F 66.0 °F 100% 29.65 in 10.0 mi East 4.6 mph - 0.02 in Rain Light Rain
1:40 AM 64.4 °F 64.4 °F 100% 29.68 in 2.5 mi SW 4.6 mph - 0.02 in   Overcast
1:56 AM 64.9 °F 64.9 °F 100% 29.67 in 1.0 mi West 4.6 mph - 0.03 in   Overcast
2:07 AM 64.4 °F 64.4 °F 100% 29.68 in 0.5 mi West 4.6 mph - N/A Fog Fog
2:15 AM 64.4 °F 64.4 °F 100% 29.67 in 1.0 mi West 3.5 mph - 0.01 in   Overcast
2:19 AM 64.4 °F 64.4 °F 100% 29.67 in 2.5 mi WNW 5.8 mph - 0.01 in   Overcast
2:26 AM 64.4 °F 64.4 °F 100% 29.67 in 7.0 mi West 5.8 mph - 0.01 in Rain Rain
2:56 AM 64.9 °F 64.0 °F 97% 29.63 in 10.0 mi WNW 6.9 mph - 0.04 in Rain Light Rain
3:19 AM 64.4 °F 64.4 °F 100% 29.65 in 10.0 mi WNW 5.8 mph - 0.02 in Rain Light Rain
3:29 AM 64.4 °F 64.4 °F 100% 29.64 in 10.0 mi WNW 5.8 mph - 0.02 in   Overcast
3:56 AM 64.9 °F 64.0 °F 97% 29.62 in 10.0 mi NNW 9.2 mph - 0.05 in   Overcast
4:09 AM 64.4 °F 64.4 °F 100% 29.64 in 8.0 mi NW 9.2 mph - 0.01 in Rain Rain
4:56 AM 64.0 °F 63.0 °F 96% 29.64 in 10.0 mi NW 12.7 mph - 0.06 in   Overcast
5:56 AM 63.0 °F 62.1 °F 97% 29.63 in 10.0 mi NNW 11.5 mph - 0.07 in   Overcast
6:12 AM 62.6 °F 62.6 °F 100% 29.64 in 10.0 mi NW 11.5 mph - N/A   Overcast
6:44 AM 62.6 °F 60.8 °F 94% 29.66 in 10.0 mi NW 9.2 mph - N/A   Overcast
6:56 AM 62.1 °F 61.0 °F 96% 29.65 in 10.0 mi NW 11.5 mph - N/A   Overcast
7:15 AM 62.6 °F 60.8 °F 94% 29.67 in 10.0 mi NNW 11.5 mph - N/A   Overcast
8:24 AM 62.6 °F 60.8 °F 94% 29.68 in 10.0 mi NW 10.4 mph - N/A   Overcast
8:56 AM 63.0 °F 60.1 °F 90% 29.67 in 10.0 mi WNW 11.5 mph - N/A   Overcast
9:03 AM 62.6 °F 60.8 °F 94% 29.68 in 10.0 mi WNW 11.5 mph - N/A   Overcast
9:44 AM 64.4 °F 60.8 °F 88% 29.68 in 10.0 mi NW 10.4 mph - N/A   Mostly Cloudy
9:56 AM 66.0 °F 60.1 °F 81% 29.67 in 10.0 mi NW 8.1 mph - N/A   Scattered Clouds
10:56 AM 69.1 °F 57.9 °F 68% 29.67 in 10.0 mi NW 11.5 mph - N/A   Mostly Cloudy
11:56 AM 69.1 °F 59.0 °F 70% 29.69 in 10.0 mi West 10.4 mph 17.3 mph N/A   Partly Cloudy
12:11 PM 69.8 °F 60.8 °F 73% 29.70 in 10.0 mi WNW 13.8 mph - N/A   Mostly Cloudy
12:37 PM 71.6 °F 60.8 °F 69% 29.70 in 10.0 mi West 12.7 mph 19.6 mph N/A   Mostly Cloudy
12:56 PM 69.1 °F 60.1 °F 73% 29.70 in 10.0 mi NW 12.7 mph - 0.00 in Rain Light Rain
1:56 PM 72.0 °F 53.1 °F 51% 29.71 in 10.0 mi NW 20.7 mph 26.5 mph 0.00 in   Scattered Clouds
2:56 PM 72.0 °F 50.0 °F 46% 29.71 in 10.0 mi NNW 23.0 mph 28.8 mph N/A   Clear
3:56 PM 72.0 °F 52.0 °F 49% 29.72 in 10.0 mi NW 16.1 mph 24.2 mph N/A   Clear
4:56 PM 71.1 °F 51.1 °F 49% 29.74 in 10.0 mi NNW 17.3 mph 20.7 mph N/A   Clear
5:56 PM 70.0 °F 51.1 °F 51% 29.75 in 10.0 mi NW 15.0 mph - N/A   Clear
6:56 PM 69.1 °F 50.0 °F 51% 29.75 in 10.0 mi NW 11.5 mph 24.2 mph N/A   Partly Cloudy
7:56 PM 68.0 °F 50.0 °F 52% 29.76 in 10.0 mi NW 11.5 mph - N/A   Clear
8:56 PM 64.0 °F 48.9 °F 58% 29.77 in 10.0 mi WNW 9.2 mph - N/A   Clear
9:56 PM 61.0 °F 48.9 °F 64% 29.78 in 10.0 mi West 5.8 mph - N/A   Clear
10:56 PM 59.0 °F 48.9 °F 69% 29.76 in 10.0 mi WSW 4.6 mph - N/A   Clear
11:56 PM 57.0 °F 50.0 °F 77% 29.76 in 10.0 mi WSW 5.8 mph - N/A   Clear